This is the latest recevied weather packets stored in our database for station/object NO4D. If no packets are shown the sender has not sent any weather packets the latest 10 day(s).
| Time | Temp. | Humidity | Pressure | Rain* | Wind** | Luminosity | Snow |
|---|---|---|---|---|---|---|---|
| 1778128420 | 17.78° C | 99% | 1012.6 hPa | 3.05 mm | - | 0 W/m² | - |
| 1778128116 | 17.78° C | 99% | 1012.7 hPa | 3.05 mm | - | 0 W/m² | - |
| 1778127811 | 17.78° C | 99% | 1012.8 hPa | 3.05 mm | - | 0 W/m² | - |
| 1778127509 | 17.78° C | 99% | 1012.8 hPa | 1.27 mm | - | 0 W/m² | - |
| 1778127205 | 17.78° C | 99% | 1013 hPa | 0 mm | - | 0 W/m² | - |
| 1778126903 | 17.78° C | 99% | 1013.6 hPa | 0 mm | - | 0 W/m² | - |
| 1778126599 | 17.78° C | 99% | 1013.5 hPa | 0 mm | - | 0 W/m² | - |
| 1778126295 | 17.78° C | 99% | 1013.1 hPa | 0 mm | - | 0 W/m² | - |
| 1778125990 | 17.78° C | 99% | 1013.2 hPa | 0 mm | - | 0 W/m² | - |
| 1778125688 | 17.78° C | 99% | 1012.9 hPa | 0 mm | - | 0 W/m² | - |
| 1778125385 | 17.78° C | 99% | 1012.8 hPa | 1.78 mm | - | 0 W/m² | - |
| 1778125083 | 17.78° C | 99% | 1012.9 hPa | 1.78 mm | - | 0 W/m² | - |
| 1778124780 | 17.78° C | 99% | 1012.9 hPa | 0 mm | - | 0 W/m² | - |
| 1778124477 | 17.78° C | 99% | 1013 hPa | 0 mm | - | 0 W/m² | - |
| 1778124173 | 17.78° C | 99% | 1013.2 hPa | 1.27 mm | - | 0 W/m² | - |
| 1778123870 | 17.78° C | 99% | 1013.3 hPa | 3.05 mm | - | 0 W/m² | - |
| 1778123567 | 17.78° C | 99% | 1013 hPa | 3.05 mm | - | 0 W/m² | - |
| 1778123263 | 17.78° C | 99% | 1012.6 hPa | 3.05 mm | - | 0 W/m² | - |
| 1778122961 | 17.78° C | 99% | 1012.5 hPa | 3.56 mm | - | 0 W/m² | - |
| 1778122658 | 17.78° C | 99% | 1012.8 hPa | 4.83 mm | - | 0 W/m² | - |
| 1778122355 | 17.78° C | 99% | 1012.7 hPa | 4.83 mm | - | 0 W/m² | - |
| 1778122053 | 17.78° C | 99% | 1012.6 hPa | 4.32 mm | - | 0 W/m² | - |
| 1778121750 | 17.78° C | 99% | 1012.9 hPa | 4.83 mm | - | 0 W/m² | - |
| 1778121446 | 17.78° C | 99% | 1013 hPa | 4.83 mm | - | 0 W/m² | - |
| 1778121143 | 17.78° C | 99% | 1013.3 hPa | 4.83 mm | - | 0 W/m² | - |
* Rain latest hour (hover to see other rain measurements)
** Current wind speed in m/s (hover to see current wind gust speed)